Regional Weather Roundup
Issued by NWS Charleston, SC

Current Version | Previous Version | Text Only | Print | Product List | Glossary Off
Versions: 1 2 3 4 5 6 7 8 9 10 11 12 13 14 15 16 17 18 19 20 21 22 23 24 25 26 27 28 29 30 31 32 33 34 35 36 37 38 39 40 41 42 43 44 45 46 47 48 49 50
000 ASUS42 KCHS 250513 RWRCHS REGIONAL WEATHER ROUNDUP NATIONAL WEATHER SERVICE CHARLESTON SC 100 AM EDT THU AUG 25 2016 NOTE: "FAIR" INDICATES FEW OR NO CLOUDS BELOW 12,000 FEET WITH NO SIGNIFICANT WEATHER AND/OR OBSTRUCTIONS TO VISIBILITY. NOT ALL STATIONS ARE QUALITY CONTROLLED. USE DATA WITH CAUTION... ESPECIALLY DEWPOINT OBSERVATIONS. SCZ027-030-031-034>040-042>050-250600- ...SOUTHEAST SOUTH CAROLINA... CITY SKY/WX TMP DP RH WIND PRES REMARKS N CHARLESTON CLEAR 71 66 84 NE5 30.17F WATERFRONT PRK N/A 80 71 74 NE6 30.15F MOUNT PLEASANT FAIR 72 70 94 CALM 30.17F JOHNS ISLAND FAIR 72 68 88 CALM 30.17S PINOPOLIS N/A 75 70 83 CALM 30.11F MONCKS CORNER FAIR 68 66 94 CALM 30.18F SUMMERVILLE FAIR 70 70 100 CALM 30.19F BEAUFORT MCAS CLEAR 74 70 87 NW3 30.17F BEAUFORT ARPT FAIR 73 70 88 CALM 30.16S HILTON HEAD IS CLEAR 79 68 69 VRB6 30.16F WALTERBORO CLEAR 70 70 100 CALM 30.19F ALLENDALE FAIR 72 66 83 CALM 30.18S ...SOUTHERN MIDLANDS AND PEE DEE... CITY SKY/WX TMP DP RH WIND PRES REMARKS GEORGETOWN FAIR 68 64 88 CALM 30.18F KINGSTREE FAIR 64 63 94 CALM 30.19F ORANGEBURG PTCLDY 70 66 87 CALM 30.20F BARNWELL NOT AVBL AIKEN CLOUDY 77 64 65 SE3 30.23F MANNING FAIR 66 64 94 CALM 30.19F COLUMBIA MOCLDY 74 67 78 CALM 30.18F SUMTER CLEAR 70 65 83 E1 30.17F FLORENCE CLEAR 70 65 84 CALM 30.20F MYRTLE BEACH CLEAR 72 57 60 NW3 30.19F N MYRTLE BEACH CLEAR 69 63 81 CALM 30.17F $$ GAZ063-065-086>088-099>101-113>116-118-119-134>141-150-250600- ...SOUTHEAST GEORGIA... CITY SKY/WX TMP DP RH WIND PRES REMARKS SAVANNAH ARPT CLEAR 72 67 84 CALM 30.16F HUNTER AAF CLEAR 73 70 92 CALM 30.13F FORT STEWART CLEAR 71 68 90 CALM 30.14F STATESBORO CLEAR 71 70 98 CALM 30.18S SYLVANIA NOT AVBL CLAXTON FAIR 69 69 100 CALM 30.17F ...CSRA...CENTRAL AND FAR SOUTHEAST GEORGIA... CITY SKY/WX TMP DP RH WIND PRES REMARKS THOMSON CLEAR 74 74 100 MISG 30.24S AUGUSTA-BUSH CLOUDY 74 71 91 SE3 30.17F AUGUSTA-DANIEL CLOUDY 79 70 74 SE5 30.19F SWAINSBORO FAIR 72 68 88 CALM 30.19S VIDALIA PTCLDY 75 72 88 CALM 30.17F EASTMAN FAIR 76 62 60 CALM 30.19F HAZLEHURST FAIR 77 70 79 CALM 30.15F ALMA PTCLDY 70 69 97 CALM 30.16F WAYCROSS N/A 75 74 98 CALM 30.15F JESUP FAIR 72 72 100 CALM 30.15F BAXLEY FAIR 73 73 100 E3 30.16F BRUNSWICK CLEAR 72 72 100 CALM 30.15F SAINT SIMONS CLEAR 82 65 56 E10 30.14F $$ SCZ027-028-034-036>038-045-046-048>050-GAZ119-141-250600- ...LAKE AND SUPPLEMENTAL COASTAL OBSERVATIONS... STATION/POSITION TIME TEMP WIND PRES WAVE SWELL AIR SEA DIR/SP/G HT/PER HT/PER/DIR (UTC) (F) (DEG/KT/KT) (MB) (FT/S) (FT/S/D) WINYAH BAY NOT AVBL LAKE MURRAY 0400 83 170/ 4/ 7 1022.0S ACE BASIN NERRS NOT AVBL FORT PULASKI 0400 83 86 70/ 12/ 14 1021.9F SAPELO ISLAND 0400 79 60/ 5 1021.0F $$ ANZ835-935-AMZ111-154-330-350-352-354-370-450-454-472-250600- ...C-MAN AND BUOY OBSERVATIONS... STATION/POSITION TIME TEMP WIND PRES WAVE SWELL AIR SEA DIR/SP/G HT/PER HT/PER/DIR (UTC) (F) (DEG/KT/KT) (MB) (FT/S) (FT/S/D) BUOY 41004 0450 81 84 60/ 10/ 14 1020.0 3/ 7 2/ 90/ 7 BUOY 41008 0450 83 85 80/ 14/ 16 1020.2 4/ 6 2/100/ 8 FOLLY BEACH CMAN 0500 81 50/ 11/ 12 1021.4F CAPERS NEARSHORE 0408 81 84 70/ 12/ 16 1021.2F FRIPP NEARSHORE 0408 82 86 80/ 12/ 16 1020.7F STATION/POSITION TIME TEMP WIND PRES WAVE SWELL AIR SEA DIR/SP/G HT/PER HT/PER/DIR (UTC) (F) (DEG/KT/KT) (MB) (FT/S) (FT/S/D) 5E ST. MARYS GA 0401 84 N/A 5/ 6 FRYING PAN BUOY 0400 82 84 80/ 10/ 16 1021.0F BUOY 41025 0450 81 84 90/ 12/ 16 1021.7 3/11 2/100/11 CAPE LOOKOUT NC 0500 80 90/ 13/ 15 1021.5F BUOY 41002 0450 80 85 70/ 19/ 23 1019.1 6/ 6 2/100/ 9 BUOY 41010 NOT AVBL ST AUGUSTINE FL 0500 82 83 60/ 18/ 20 1020.3F $$

USA.gov is the U.S. government's official web portal to all federal, state and local government web resources and services.